This is the latest recevied weather packets stored in our database for station/object K5NAN. If no packets are shown the sender has not sent any weather packets the latest 10 day(s).
| Time | Temp. | Humidity | Pressure | Rain* | Wind** | Luminosity | Snow |
|---|---|---|---|---|---|---|---|
| 1777198209 | 20.56° C | 94% | 1006.5 hPa | 0 mm | - | 0 W/m² | - |
| 1777197903 | 20.56° C | 94% | 1006.2 hPa | 0 mm | - | 0 W/m² | - |
| 1777197598 | 20.56° C | 94% | 1006.2 hPa | 0 mm | - | 0 W/m² | - |
| 1777197294 | 20.56° C | 94% | 1006.1 hPa | 0 mm | - | 0 W/m² | - |
| 1777196991 | 20.56° C | 94% | 1005.9 hPa | 0 mm | - | 0 W/m² | - |
| 1777196687 | 21.11° C | 94% | 1005.9 hPa | 0 mm | - | 0 W/m² | - |
| 1777196385 | 20.56° C | 94% | 1005.6 hPa | 0 mm | - | 0 W/m² | - |
| 1777196081 | 20.56° C | 94% | 1005.6 hPa | 0 mm | - | 0 W/m² | - |
| 1777195778 | 21.11° C | 93% | 1005.7 hPa | 0 mm | - | 0 W/m² | - |
| 1777195477 | 21.11° C | 93% | 1005.6 hPa | 0 mm | - | 0 W/m² | - |
| 1777195173 | 21.11° C | 93% | 1005.6 hPa | 0 mm | - | 0 W/m² | - |
| 1777194870 | 21.11° C | 93% | 1005.6 hPa | 0 mm | - | 0 W/m² | - |
| 1777194565 | 21.11° C | 92% | 1005.5 hPa | 0 mm | - | 0 W/m² | - |
| 1777194262 | 21.11° C | 92% | 1005.2 hPa | 0 mm | - | 0 W/m² | - |
| 1777193960 | 21.11° C | 91% | 1005.3 hPa | 0 mm | - | 0 W/m² | - |
| 1777193658 | 21.67° C | 91% | 1005.2 hPa | 0 mm | - | 0 W/m² | - |
| 1777193352 | 21.67° C | 90% | 1005.2 hPa | 0 mm | - | 0 W/m² | - |
| 1777193048 | 21.67° C | 89% | 1005 hPa | 0 mm | - | 0 W/m² | - |
| 1777192743 | 22.78° C | 89% | 1005.1 hPa | 0 mm | - | 0 W/m² | - |
| 1777192440 | 22.78° C | 90% | 1005.1 hPa | 0 mm | - | 0 W/m² | - |
| 1777192136 | 22.22° C | 91% | 1005.1 hPa | 0 mm | - | 0 W/m² | - |
| 1777191833 | 22.22° C | 90% | 1005.1 hPa | 0 mm | - | 0 W/m² | - |
| 1777191530 | 22.22° C | 90% | 1004.9 hPa | 0 mm | - | 0 W/m² | - |
| 1777191225 | 22.22° C | 90% | 1005 hPa | 0 mm | - | 0 W/m² | - |
| 1777190923 | 22.22° C | 90% | 1005.1 hPa | 0 mm | - | 0 W/m² | - |
* Rain latest hour (hover to see other rain measurements)
** Current wind speed in m/s (hover to see current wind gust speed)